Wind_Speed
22 21 20 21 21 21 21 21 20 20 20 21 22 22 23 23 23 22 23 23 24 24 24 24 24 23 22 21 20 20 18 14 11 10 9 10 10 10 11 11 12 12 13 13 13 13 13 12 11 11 10 10 9 9 9 8 8 8 8 8 7 6 5 4 3 2 2 2 3 3 4 4 4 4 5 6 5 5 5 5 5 4 4 4 4
20 18 19 19 19 20 20 20 20 20 21 22 22 23 23 22 22 22 23 23 24 24 23 24 24 24 23 22 22 21 18 15 11 10 9 10 10 11 11 11 12 13 14 14 14 13 13 12 11 11 10 10 10 9 9 9 8 8 8 8 7 6 5 4 3 2 2 2 2 3 4 4 4 5 6 6 6 6 6 5 5 4 4 3 3
21 20 20 19 19 20 20 20 20 21 22 23 23 23 22 21 21 22 23 24 24 23 23 24 24 24 24 24 23 21 18 16 13 11 10 10 10 11 11 11 12 13 14 14 14 14 13 12 11 11 11 10 10 10 9 9 9 9 9 8 8 7 5 4 3 2 2 2 2 3 4 4 5 5 6 7 7 7 6 6 5 4 4 3 3
21 19 19 19 19 20 20 20 21 23 24 24 24 22 21 21 21 22 23 24 23 23 23 24 24 24 24 25 23 21 18 17 14 12 11 11 11 11 11 11 12 13 14 14 14 13 13 13 12 11 11 11 10 10 9 9 9 9 9 8 8 6 5 4 3 2 2 2 2 3 4 5 5 5 6 7 7 7 7 6 5 5 4 3 3
19 17 17 18 18 20 20 22 23 24 24 24 23 22 21 21 22 23 24 24 24 23 24 24 24 24 24 24 23 21 19 17 15 13 12 12 12 11 11 11 12 13 13 13 13 13 13 12 12 11 11 11 10 10 9 9 9 8 8 8 7 6 5 4 3 2 2 2 2 3 4 5 6 6 7 8 8 8 7 7 6 5 4 3 3
21 19 19 19 20 22 22 24 25 25 24 23 22 21 21 21 22 23 24 24 24 24 24 24 25 25 24 24 23 21 19 17 16 14 13 12 13 12 12 12 12 13 13 13 13 13 13 12 12 12 11 11 10 10 9 9 9 8 8 8 7 6 6 5 3 2 2 2 2 3 4 5 6 7 7 8 9 9 8 8 7 6 5 4 3
23 22 22 22 23 24 24 25 25 25 24 22 21 21 21 22 23 23 24 24 24 24 24 24 25 25 24 23 22 22 21 18 16 14 14 13 13 13 13 13 12 13 13 13 12 12 12 12 12 11 11 11 10 10 9 9 9 8 8 8 7 6 6 5 4 3 2 3 3 4 5 6 7 7 8 8 9 9 9 8 8 7 6 5 4
24 24 24 24 24 24 24 25 25 24 22 21 21 21 22 22 23 23 24 24 25 25 25 25 25 25 24 23 22 22 21 20 17 14 14 14 14 14 14 14 13 13 13 12 12 11 11 11 11 11 11 10 10 10 9 9 9 9 8 7 7 6 5 5 4 3 3 3 3 4 5 6 7 8 9 9 10 10 10 9 8 8 7 6 5
25 25 25 25 24 24 24 25 24 22 21 21 21 22 23 23 23 24 25 25 25 26 26 26 25 25 24 22 22 23 22 20 17 14 14 15 15 15 15 14 13 13 13 12 11 11 11 11 11 11 11 10 10 10 10 9 9 9 8 7 7 6 5 4 4 3 3 3 4 4 4 6 8 8 9 10 10 10 10 10 9 8 8 7 6
24 24 24 24 24 24 24 23 22 21 20 21 21 22 23 24 24 24 25 25 26 27 27 27 26 25 23 22 22 23 22 20 17 15 15 15 16 16 15 15 14 14 14 12 11 11 11 11 10 10 10 10 10 10 10 9 9 9 8 7 7 7 5 4 4 3 3 3 3 3 5 6 8 9 9 10 11 11 11 10 10 9 8 8 7
22 23 23 24 24 24 22 21 20 20 20 21 22 23 24 24 25 25 26 26 27 28 28 27 27 25 23 23 23 23 21 19 17 16 16 16 16 16 16 15 15 15 14 12 11 11 10 10 10 10 10 10 10 10 10 10 10 9 8 7 7 7 6 5 4 3 3 3 3 4 5 6 8 9 9 10 11 11 11 11 10 10 9 8 8
23 23 23 23 23 22 21 19 19 19 20 21 22 23 24 25 26 26 26 26 27 28 28 28 27 26 23 23 23 22 20 18 17 17 17 17 17 17 16 16 16 16 14 13 11 11 10 10 10 10 11 11 11 11 11 11 10 9 8 8 8 8 6 5 5 4 4 4 4 4 5 6 8 8 9 10 11 12 12 12 11 10 10 9 8
23 23 23 22 22 21 19 19 19 19 20 21 22 24 25 26 26 26 26 26 27 28 27 27 27 25 23 23 23 21 19 18 17 17 18 18 17 17 17 17 17 17 15 12 11 11 11 10 10 10 11 11 12 12 12 11 11 10 9 8 8 8 7 5 5 5 5 4 4 4 4 6 7 8 9 9 10 12 12 12 12 11 11 10 9
22 22 22 21 20 19 18 19 19 20 21 22 23 24 25 26 26 26 26 26 27 27 27 26 25 23 23 23 22 19 18 18 18 18 18 18 17 17 17 17 17 16 14 11 11 11 11 11 11 11 11 12 12 13 12 12 12 10 9 8 8 8 7 5 6 6 5 4 4 4 4 6 7 8 9 9 10 11 12 13 13 12 12 11 10
22 22 20 20 18 18 18 19 20 21 22 23 24 25 26 26 26 26 26 27 27 27 25 24 23 21 22 22 21 19 18 18 18 18 18 17 17 17 17 17 17 15 13 11 11 11 11 11 12 12 12 12 13 13 13 13 12 11 10 9 9 8 7 6 7 7 5 4 4 4 4 5 7 8 9 9 10 10 12 13 13 13 13 12 11
21 20 19 19 18 18 19 20 21 22 23 24 24 25 26 26 25 26 26 27 27 26 24 23 21 20 20 20 19 18 18 18 18 18 18 17 17 17 16 16 15 14 13 12 11 11 11 12 13 13 13 13 14 14 14 13 12 11 10 10 9 9 8 7 7 8 6 5 5 4 4 5 6 7 8 9 10 10 11 12 13 13 13 13 12
20 19 18 18 18 19 20 21 22 23 24 24 25 26 26 26 26 26 27 27 26 25 24 23 22 20 19 18 17 17 18 18 17 17 17 18 17 17 17 16 14 13 13 12 12 12 12 13 13 14 14 14 14 15 15 14 12 11 11 10 10 10 10 8 8 9 7 6 6 5 4 4 5 6 7 9 10 11 11 11 12 13 14 14 13
19 18 18 18 18 20 21 22 22 23 23 24 26 26 26 25 25 26 26 25 25 25 24 23 22 20 18 16 16 17 17 17 16 17 17 17 16 17 17 15 14 13 13 13 13 13 13 14 14 15 15 15 15 15 15 14 13 12 11 11 11 11 11 9 8 9 8 7 7 6 5 5 5 5 7 8 10 11 11 11 11 12 14 14 14
18 18 18 19 20 21 22 22 22 23 23 25 25 25 25 25 25 25 25 24 24 24 23 22 21 18 15 15 15 17 16 15 16 18 17 15 16 17 16 14 14 13 13 13 13 14 15 15 15 16 16 16 16 16 15 15 13 12 11 11 11 12 11 9 8 9 9 8 8 8 7 6 5 5 6 8 9 11 11 11 11 11 12 14 14
18 19 19 20 21 21 21 21 22 23 24 24 24 24 23 23 24 25 26 25 23 23 22 21 19 16 15 14 14 16 15 15 16 17 16 16 16 16 14 13 14 14 14 14 14 15 16 16 16 17 17 17 17 16 15 15 14 13 12 11 11 12 11 8 8 10 10 9 9 9 9 8 7 7 7 7 8 10 11 11 11 11 11 12 14
20 21 21 22 22 22 21 21 22 23 24 23 22 22 22 23 25 26 26 23 22 22 21 19 17 16 16 12 12 14 13 14 16 17 19 18 15 13 12 12 13 14 14 14 16 17 17 17 17 17 18 18 17 16 15 15 14 13 12 12 12 12 10 8 10 11 10 11 11 10 9 10 9 8 8 8 8 9 10 11 11 11 11 11 12
22 23 23 23 22 21 21 21 23 24 23 21 20 20 22 25 26 25 23 21 21 21 19 17 17 18 17 13 12 13 13 15 16 17 18 16 14 11 10 11 12 13 14 15 17 17 17 17 17 18 18 19 18 17 15 15 14 14 13 12 12 12 10 8 10 12 11 12 13 11 10 11 11 10 10 9 8 8 9 10 11 12 11 11 11
24 24 24 23 22 21 22 23 24 23 22 19 18 19 21 22 22 22 20 18 19 18 16 17 18 17 16 15 15 15 16 16 16 16 14 12 13 11 10 11 11 12 14 16 16 16 16 16 18 18 18 19 19 17 16 15 14 14 13 13 12 11 10 8 9 12 12 13 14 12 11 11 11 11 11 10 10 9 9 9 10 11 12 12 12
26 25 24 23 22 22 23 24 23 21 20 17 17 18 19 18 18 21 19 17 17 15 13 14 15 15 15 17 18 17 17 16 14 12 11 11 11 10 9 10 11 13 14 15 15 14 14 15 18 18 18 18 17 16 15 15 15 15 14 13 11 11 10 7 8 11 12 14 14 13 13 12 12 12 12 11 11 10 10 9 10 11 12 13 13
27 26 24 23 22 23 23 24 21 19 19 19 17 17 16 16 17 19 17 14 14 12 11 12 13 14 14 16 17 17 16 14 10 9 10 10 10 9 9 10 12 13 13 14 14 14 13 15 18 19 18 16 15 15 15 14 14 15 15 13 11 11 10 7 8 11 13 14 15 14 14 15 14 13 12 12 11 11 10 10 10 11 11 13 14
27 26 24 23 23 23 23 22 19 18 20 19 18 17 16 16 16 17 14 13 13 12 12 12 11 12 12 15 18 18 15 12 10 9 10 10 9 9 10 11 12 12 12 13 14 14 15 16 18 18 16 14 14 14 14 13 14 14 14 13 12 11 10 9 9 11 13 15 15 16 16 15 15 14 13 12 12 12 11 11 11 12 12 13 14
27 25 23 23 23 22 21 20 19 20 20 19 18 17 17 16 15 17 16 14 13 11 10 11 12 13 13 15 16 14 12 10 10 10 9 9 10 10 10 11 12 12 12 13 15 15 15 16 17 16 14 12 13 14 14 12 13 14 13 12 11 12 11 9 10 12 14 15 16 16 16 15 15 15 14 13 14 14 14 13 13 13 13 13 14
25 24 24 24 22 20 20 19 19 20 20 21 19 18 17 16 16 17 16 13 12 10 9 12 15 14 13 12 12 11 10 10 10 9 8 9 9 10 10 11 11 11 12 13 15 15 15 14 14 14 13 12 12 14 14 13 14 14 13 11 9 11 12 10 11 13 14 15 16 16 15 15 15 15 15 15 15 16 16 15 15 14 14 15 15
24 24 25 24 21 18 19 20 19 20 22 21 19 17 17 16 17 16 15 13 12 12 12 15 14 12 11 10 10 9 10 9 8 7 7 7 7 8 9 10 10 10 11 12 13 14 13 13 12 12 11 10 10 12 13 13 13 13 13 11 7 9 11 12 13 14 15 16 16 15 14 13 14 15 16 16 16 17 17 17 16 16 16 16 16
25 26 25 22 20 19 20 21 20 21 21 19 16 15 13 14 16 15 15 14 13 13 14 13 11 10 11 12 12 10 8 6 6 7 6 6 7 8 8 9 9 10 11 11 11 12 12 11 10 10 9 8 9 10 11 10 9 10 12 10 7 8 11 12 14 15 15 16 16 15 13 12 13 15 16 16 16 17 18 18 18 17 17 17 17
25 26 25 22 21 20 20 19 18 19 19 16 13 12 10 12 15 16 18 16 14 13 13 12 11 12 13 13 12 11 8 7 7 7 5 6 7 7 8 9 8 9 10 10 10 10 10 9 8 8 9 8 9 10 11 10 8 9 11 10 8 10 12 12 13 16 16 17 18 15 11 12 13 14 15 16 17 18 19 19 19 18 18 18 19
26 26 24 22 22 20 19 18 17 17 17 16 14 13 11 12 15 16 17 14 12 12 13 12 12 13 14 12 10 9 9 8 7 5 4 5 6 6 6 7 7 8 9 9 8 8 8 7 6 7 9 8 8 9 9 9 8 8 9 8 8 11 13 13 13 16 17 17 16 13 10 12 13 15 16 17 18 19 20 21 20 19 18 18 19
27 26 22 21 20 19 19 20 19 17 16 16 16 16 13 13 14 13 13 12 12 13 14 14 13 12 11 11 9 8 7 5 4 4 4 5 5 5 4 5 6 6 7 7 6 6 6 5 5 7 8 7 7 7 6 6 6 6 7 8 7 9 12 13 13 14 15 14 12 11 12 13 13 14 16 17 18 19 20 21 21 21 20 20 20
28 25 22 19 18 17 18 20 18 15 14 13 13 13 11 10 12 13 14 16 16 17 17 16 14 11 9 9 9 6 4 3 3 3 4 4 3 3 3 4 5 5 6 6 6 6 5 5 5 5 6 6 5 4 3 4 5 6 7 9 9 10 11 10 10 11 10 9 9 9 12 13 10 11 13 16 17 19 20 21 21 21 22 22 22
27 25 22 19 18 18 18 19 17 14 13 12 11 9 10 12 15 16 17 19 20 20 18 15 12 10 9 7 6 4 4 3 4 3 3 4 3 4 4 5 6 6 7 7 6 6 5 4 5 5 5 5 4 2 2 3 5 6 6 8 10 10 9 8 8 8 8 7 7 8 9 8 7 7 9 12 14 15 18 20 21 22 22 22 23
22 24 23 20 19 20 19 19 18 16 14 13 12 12 15 18 18 17 16 17 18 18 17 15 12 11 9 6 5 4 3 3 4 3 3 4 5 5 6 6 7 7 7 6 6 6 4 4 4 4 5 4 3 2 2 2 3 5 4 5 8 7 6 7 7 6 6 6 5 6 6 6 6 7 8 8 10 11 13 16 18 20 21 22 22
22 21 21 20 19 19 20 20 19 17 14 14 14 15 16 17 18 17 14 14 15 17 17 15 14 13 9 5 4 2 2 4 4 4 4 5 5 5 6 6 7 7 7 6 5 5 5 5 4 4 4 3 3 3 2 1 2 3 2 3 5 6 6 7 6 5 7 6 5 5 6 6 7 8 8 8 9 10 10 11 13 15 18 20 20
21 18 17 18 18 17 16 17 18 17 15 15 14 13 13 13 14 15 14 14 16 16 13 10 8 6 4 2 2 2 3 3 3 4 5 5 5 6 6 6 6 7 7 7 6 6 6 5 4 4 4 3 3 3 2 1 2 3 4 4 5 7 6 5 6 7 7 5 4 5 6 6 7 8 9 9 8 8 8 9 10 11 12 15 17
21 19 17 16 17 17 15 13 14 15 15 16 14 13 12 12 11 12 13 12 10 10 10 7 4 2 2 3 4 4 4 3 4 5 5 4 5 5 6 6 7 7 8 8 7 7 7 6 5 4 4 4 4 4 3 3 3 5 6 6 6 6 5 5 6 7 6 5 5 5 5 6 6 7 8 8 8 7 8 9 11 11 10 11 13
22 21 19 16 18 19 19 18 15 13 15 16 15 14 13 11 11 10 12 12 8 7 8 8 7 6 6 7 6 5 4 4 5 5 5 5 5 6 6 6 7 8 8 8 8 8 8 7 6 4 4 4 4 4 5 5 5 6 7 7 8 7 5 7 8 7 6 7 7 7 6 6 7 8 8 7 7 7 8 9 10 11 10 10 10
25 22 19 17 18 19 20 20 16 14 14 15 14 14 13 11 12 12 12 14 13 13 11 11 10 9 8 7 6 6 5 6 6 7 7 7 7 7 7 7 7 8 8 8 8 9 8 8 6 5 5 5 5 6 7 7 7 8 7 8 10 9 7 7 8 6 6 7 7 8 7 6 6 7 8 8 7 7 7 7 8 9 10 10 10
26 22 19 17 16 17 18 17 15 14 13 14 13 14 14 12 12 12 14 15 15 14 13 13 11 9 8 7 6 6 7 8 8 8 8 8 8 8 8 7 7 8 8 8 8 8 8 8 8 6 6 6 6 8 8 8 9 9 9 8 10 10 8 8 8 7 6 7 7 8 8 7 6 7 8 8 8 7 6 6 7 7 8 9 9
23 20 19 18 17 16 16 15 14 13 13 14 14 14 14 13 12 13 15 15 14 13 12 11 9 8 8 7 7 7 8 9 9 9 9 9 9 9 9 8 7 7 8 8 8 8 8 8 8 8 7 7 8 9 9 9 9 10 10 9 10 11 10 10 10 9 8 8 8 9 9 8 7 8 9 8 8 7 7 7 8 7 7 7 6
21 19 19 20 19 18 17 16 15 15 14 14 15 14 13 13 15 15 14 13 13 12 9 9 8 8 8 8 8 9 9 9 8 9 9 9 10 10 9 8 7 7 7 7 7 8 8 8 9 9 8 8 9 9 9 9 9 10 10 10 10 11 11 11 12 11 10 10 9 9 9 9 9 9 9 7 7 7 7 8 8 8 8 7 7
20 18 19 20 20 19 19 18 16 16 17 16 15 14 13 14 15 14 13 13 13 11 9 9 8 7 8 8 9 8 9 9 9 9 9 8 9 8 8 8 7 6 6 6 6 7 7 8 9 9 9 9 9 9 9 9 9 10 10 10 11 11 10 11 12 11 11 11 10 9 10 10 10 10 9 7 7 7 7 8 8 9 9 9 9
20 18 18 19 19 19 18 18 17 17 18 17 14 12 11 12 12 13 15 15 13 12 10 9 9 8 8 8 8 9 10 11 12 11 10 9 8 8 8 7 7 7 6 6 6 6 7 8 8 9 9 9 9 9 9 9 9 10 10 11 11 11 10 11 11 11 11 10 10 9 9 10 10 10 9 9 8 8 8 9 9 9 9 9 9
19 17 15 14 14 14 15 16 16 16 17 16 14 12 10 10 10 13 16 15 14 13 12 11 11 10 9 9 8 9 11 13 14 13 12 11 10 9 9 8 8 8 8 8 8 7 8 9 9 9 9 9 9 9 9 9 10 11 11 11 12 11 11 12 11 11 11 10 9 9 8 9 10 10 10 10 9 9 9 10 10 10 9 8 8
18 17 14 11 11 11 11 12 12 13 14 15 15 13 12 11 11 12 12 13 13 14 13 12 13 12 12 12 11 11 12 14 15 15 14 13 11 10 10 10 10 10 10 10 10 9 9 9 9 9 9 9 8 8 8 10 10 11 11 11 12 12 12 13 12 12 11 10 9 9 7 6 7 8 9 9 8 7 8 9 9 9 8 9 10
17 17 17 16 13 9 7 7 7 9 12 13 13 13 12 12 11 11 11 12 12 14 15 15 15 16 15 14 12 12 13 14 16 17 16 14 12 11 10 10 11 12 12 11 11 10 10 9 9 9 9 8 8 8 8 9 9 10 10 11 11 12 13 13 12 12 11 11 10 8 7 6 6 7 7 8 8 6 6 7 8 8 9 10 11
16 15 16 16 13 8 6 4 3 5 9 10 10 10 10 11 11 12 14 16 15 15 16 17 17 16 14 12 13 13 14 15 16 17 16 14 13 11 11 11 12 12 12 12 11 10 9 9 9 9 9 9 9 9 9 9 9 10 10 11 11 12 12 12 11 11 10 10 10 8 7 6 6 5 6 7 7 7 7 8 9 10 11 11 11
17 16 15 14 12 9 7 5 4 2 4 6 6 6 7 9 12 14 15 16 17 16 16 17 17 17 16 16 16 16 15 15 15 16 15 14 13 13 13 13 13 12 12 12 11 9 9 9 8 8 8 8 9 9 9 9 10 10 11 12 12 12 12 11 11 10 10 10 10 9 7 6 6 5 6 8 8 8 9 9 10 11 11 12 11
Wind_Direction
274 271 268 268 272 275 277 280 284 288 293 296 298 301 304 308 313 315 316 313 312 313 316 317 316 317 318 320 320 319 315 308 301 298 299 304 313 320 324 321 319 318 315 314 311 310 307 306 304 305 306 307 305 304 302 300 299 295 293 289 287 287 285 280 279 273 253 228 209 200 193 184 178 168 159 159 158 158 153 144 136 129 121 113 102
274 277 274 274 276 279 281 283 287 291 294 296 298 301 305 310 313 313 312 310 310 312 315 314 313 314 316 318 318 317 313 306 297 292 295 301 311 319 324 321 320 319 317 316 313 311 309 308 308 310 310 310 307 304 303 302 300 297 294 292 291 292 290 284 281 271 250 225 207 203 195 183 178 174 164 162 162 162 157 149 142 137 130 127 114
281 281 277 279 281 283 285 286 290 294 295 297 299 303 308 311 311 310 307 307 309 311 312 310 311 313 314 316 316 315 312 307 296 287 290 297 307 316 321 321 319 319 319 318 315 312 311 311 312 313 311 309 306 303 304 303 303 301 300 300 301 301 299 295 290 283 264 232 216 214 200 184 180 176 168 166 166 164 160 154 148 144 141 140 129
283 282 278 279 281 284 286 288 291 295 296 297 300 305 309 309 308 305 304 305 308 309 308 308 309 311 312 313 313 313 311 308 299 288 286 291 301 309 316 317 318 319 319 318 316 314 313 313 313 312 309 307 305 304 305 305 305 303 302 303 304 304 301 297 297 294 276 242 220 225 207 186 182 180 175 170 169 168 162 157 153 150 148 152 148
279 280 278 278 280 284 286 288 292 295 296 297 301 306 307 306 304 301 302 305 306 305 305 306 307 308 309 310 311 311 310 306 301 291 284 287 294 301 308 312 314 317 318 318 316 315 314 313 312 311 307 305 304 306 307 306 305 301 299 299 300 299 295 292 292 287 278 257 223 222 211 189 184 184 180 175 172 171 166 161 157 156 156 162 162
271 271 273 275 281 285 286 288 292 293 294 297 302 304 304 301 299 299 302 303 302 302 303 304 304 306 307 308 308 308 307 303 299 294 288 286 288 295 300 304 310 314 317 317 315 314 313 312 310 308 305 305 306 307 307 305 301 297 294 294 296 294 293 291 288 289 290 268 233 215 208 193 188 186 185 181 176 174 171 165 161 162 163 168 172
267 267 270 274 281 284 285 287 289 290 293 297 301 300 298 296 297 298 300 300 299 300 301 302 302 303 304 304 305 305 303 298 295 295 292 288 289 292 293 297 305 312 315 315 314 313 312 310 308 306 305 307 309 309 306 302 296 292 289 289 291 292 293 290 288 290 285 268 239 216 204 196 194 188 187 186 180 177 174 169 165 166 166 170 175
266 267 271 275 279 281 282 284 285 288 293 297 298 295 294 294 295 296 296 297 297 298 299 300 300 300 301 301 302 302 298 293 292 296 296 293 291 289 288 293 301 309 312 312 311 311 310 308 307 305 307 310 310 309 304 298 293 289 286 284 286 287 286 286 287 288 282 266 239 221 208 201 200 190 187 189 184 181 178 173 168 168 167 171 176
265 267 270 273 276 278 279 281 285 290 294 295 294 293 293 293 293 293 293 295 296 297 297 298 298 297 297 298 299 298 293 290 290 296 298 294 289 287 287 291 298 304 306 309 311 310 308 306 307 308 309 311 309 305 300 294 290 286 282 278 279 280 278 279 282 282 278 262 245 227 216 210 204 193 188 189 187 184 182 178 172 171 169 172 179
264 267 269 272 274 276 278 282 288 292 294 293 293 292 291 291 291 291 292 294 295 295 295 296 296 295 295 295 296 294 290 288 291 296 294 291 287 285 286 289 293 296 300 307 310 309 305 305 308 308 308 306 303 299 295 292 287 284 278 273 272 273 272 273 276 273 267 259 246 222 216 215 207 197 190 190 190 186 186 182 177 175 173 174 181
264 267 270 273 275 277 280 285 289 291 291 291 290 290 289 289 289 290 292 293 293 293 294 295 294 293 293 293 292 290 287 288 291 292 288 286 285 284 285 286 287 289 296 305 307 306 304 306 308 305 303 301 298 296 293 291 287 282 277 271 267 267 266 267 269 264 257 251 234 219 217 215 208 199 192 192 193 189 188 186 182 180 178 178 183
266 269 272 274 276 278 283 287 289 289 288 287 287 287 287 287 287 289 291 292 292 293 294 295 293 293 292 290 289 286 284 287 288 287 284 283 282 283 283 282 283 285 291 299 302 303 304 306 306 301 299 298 296 294 292 289 286 282 277 271 264 264 263 263 267 263 256 249 230 223 220 216 210 202 195 194 197 193 190 189 186 184 184 183 185
267 270 272 274 277 281 285 286 286 285 284 284 285 285 285 285 286 288 290 292 292 293 295 294 292 291 290 287 285 282 282 283 285 284 281 280 280 281 280 280 283 283 285 293 298 300 302 304 302 299 297 296 295 292 289 286 283 280 276 269 262 261 262 260 264 263 256 250 238 229 224 221 212 204 199 196 200 199 194 193 191 188 188 188 188
269 271 273 276 279 282 283 283 282 282 283 282 283 283 283 284 285 288 290 291 292 293 292 291 290 288 285 283 282 279 279 281 282 280 278 278 278 279 280 282 283 278 278 285 291 295 298 300 299 296 295 293 291 288 285 283 281 279 275 269 262 259 258 252 258 262 255 248 244 238 231 228 219 208 201 198 202 204 200 197 196 193 192 193 191
271 273 275 279 280 281 280 280 280 280 280 280 282 282 282 283 285 289 290 291 291 290 288 287 286 283 280 280 279 278 278 279 279 277 276 276 276 277 280 284 281 273 272 277 284 290 294 296 294 292 291 289 287 284 283 281 278 277 275 272 266 260 255 246 253 258 247 240 241 241 239 235 228 214 206 201 202 206 205 202 201 199 196 198 197
272 275 278 279 279 278 278 277 277 277 278 279 280 279 281 283 286 289 289 289 287 284 282 281 279 274 277 280 279 278 277 277 276 275 274 272 274 275 279 283 277 269 271 275 280 286 290 291 290 289 287 285 283 281 280 278 277 277 276 275 272 265 257 245 247 251 240 239 242 236 239 241 237 225 215 208 204 206 207 206 206 205 202 202 202
274 276 276 276 276 275 274 273 274 275 277 277 277 278 281 284 286 288 288 287 283 279 276 276 273 269 277 283 280 277 276 276 274 273 270 269 273 277 280 279 270 267 272 276 280 285 289 291 289 286 283 280 279 277 277 276 275 274 274 274 272 267 258 244 240 247 241 239 243 238 238 245 247 238 228 218 211 209 209 208 209 209 208 207 208
273 274 272 271 272 271 271 270 272 274 276 276 277 280 283 285 288 289 287 284 280 277 276 280 275 269 276 279 275 275 276 277 272 266 265 266 273 279 279 272 261 264 270 274 281 286 290 290 287 282 278 275 273 272 273 273 272 271 270 269 268 263 257 244 234 243 245 238 239 241 237 239 250 248 241 232 221 216 213 211 211 212 213 211 212
271 270 267 267 267 267 267 269 273 275 276 277 279 282 284 286 287 288 284 280 277 277 281 283 276 268 270 271 272 275 276 276 270 264 264 269 275 275 270 260 255 261 265 270 279 286 289 288 283 278 275 272 269 267 268 269 269 266 264 262 261 257 256 247 232 238 244 239 234 237 237 233 238 245 246 243 233 224 220 216 214 214 215 215 215
267 265 264 264 264 264 266 270 274 274 275 278 281 283 284 284 284 285 283 280 278 279 281 277 271 264 262 267 271 275 278 277 271 266 268 274 273 264 255 249 253 259 263 271 281 285 285 282 278 275 271 269 266 264 264 265 265 263 261 258 255 254 255 247 233 233 238 240 236 234 236 235 234 238 243 245 241 234 228 223 221 218 216 217 216
263 262 262 263 263 265 268 271 273 273 276 279 281 283 283 281 282 283 283 281 279 277 274 268 265 263 258 259 268 276 284 279 270 266 269 271 261 247 240 243 251 258 267 277 285 287 284 279 276 274 271 268 265 263 262 262 262 260 258 256 254 255 254 243 233 233 233 240 241 234 232 235 236 236 238 241 244 241 236 231 228 225 222 220 219
262 261 260 262 265 267 270 271 272 274 277 280 283 284 281 281 283 284 284 280 277 272 267 264 262 262 257 252 263 281 286 278 272 269 267 258 243 235 235 242 252 261 273 281 286 287 285 282 278 276 275 273 269 266 263 263 262 260 258 255 254 255 255 241 232 232 229 235 241 239 233 233 236 237 238 238 240 243 241 239 235 232 231 228 226
260 261 262 264 267 269 271 270 271 276 279 281 282 282 283 284 283 285 284 275 271 269 268 264 259 261 259 253 262 280 287 282 279 270 256 237 231 233 238 246 256 267 277 281 284 285 286 287 284 280 278 276 275 273 272 268 264 261 257 255 255 256 256 243 231 231 229 235 241 243 240 236 237 238 239 239 239 241 242 242 241 238 237 235 234
261 263 264 267 269 270 270 271 277 282 283 281 279 281 284 284 282 284 281 268 266 271 272 261 252 257 257 255 260 273 284 283 275 256 230 224 231 237 244 254 264 274 280 281 281 281 282 281 278 271 266 265 268 270 272 271 269 266 261 257 256 256 257 247 232 231 230 236 242 244 244 241 240 238 239 243 243 242 243 242 243 242 240 239 238
263 264 267 269 269 270 271 276 286 290 285 281 278 279 281 282 283 281 276 267 265 269 267 253 248 256 259 261 263 269 275 270 254 232 223 232 241 245 252 260 269 277 280 280 277 273 269 268 266 262 256 253 255 257 259 262 265 266 268 267 261 258 261 252 232 231 230 235 242 243 245 244 241 239 239 244 245 244 243 242 243 244 243 241 241
263 265 268 270 268 271 275 278 286 288 282 277 275 274 274 277 277 269 263 259 262 268 259 249 258 266 265 265 266 267 263 247 230 230 235 240 246 250 256 265 273 277 276 273 269 268 269 267 266 264 262 257 254 255 253 254 256 255 259 263 264 264 262 252 238 232 230 232 237 240 244 247 247 244 241 240 244 246 243 240 240 243 244 243 242
264 267 269 269 269 274 277 277 282 280 274 269 268 268 266 263 263 259 255 252 257 263 250 248 265 264 258 258 258 256 245 231 230 237 242 246 251 256 265 274 277 277 275 271 268 271 274 273 271 271 270 263 255 252 252 257 258 252 250 251 257 264 262 251 243 237 232 231 234 237 240 244 249 250 247 242 242 244 243 241 238 239 242 244 243
267 269 268 267 269 276 277 280 283 276 270 268 266 265 260 256 261 258 253 252 247 244 245 253 261 257 254 253 248 241 236 237 240 242 250 256 258 264 273 278 278 277 274 271 272 274 273 272 276 279 274 262 251 247 254 260 253 250 251 250 248 259 265 256 244 239 237 237 236 236 236 239 246 252 253 250 247 246 245 244 240 238 239 242 244
270 269 267 268 270 270 267 270 276 276 275 272 267 264 260 260 261 252 251 256 242 239 249 252 252 250 250 250 246 241 239 241 241 246 257 264 267 274 279 276 275 273 270 271 273 274 272 273 278 281 276 263 249 250 263 263 250 243 242 248 248 247 259 258 252 247 240 241 241 239 237 239 244 249 253 254 253 252 251 248 245 241 239 239 241
269 267 267 268 268 264 262 265 267 275 282 280 275 271 267 263 255 246 252 255 243 243 245 243 242 242 248 250 248 238 228 232 246 259 268 274 274 276 275 268 267 266 268 274 276 278 277 277 278 274 274 267 253 256 267 263 251 238 234 253 266 252 256 255 253 253 247 243 242 242 240 240 243 245 250 253 256 257 257 254 250 245 241 238 237
268 265 265 264 265 265 265 268 267 273 283 288 287 284 276 264 257 253 254 249 242 243 239 239 242 246 252 251 244 233 225 238 262 273 278 279 274 268 266 264 263 266 274 280 283 287 286 286 282 271 272 270 261 262 266 261 251 239 242 264 272 262 261 251 248 250 250 245 237 237 242 243 243 244 248 252 255 256 256 256 252 248 244 240 237
264 266 270 272 273 272 271 271 272 272 275 281 284 285 274 260 262 259 250 242 240 247 251 254 253 249 247 241 237 233 235 253 277 286 279 273 272 265 264 265 267 270 276 282 287 292 295 295 281 268 272 274 271 268 267 264 259 250 254 269 261 251 250 246 249 249 253 256 245 241 248 249 245 246 250 250 250 252 254 255 254 250 246 243 240
264 267 275 279 275 273 273 273 276 277 274 278 282 281 271 257 256 250 246 253 258 264 268 263 254 244 238 235 233 233 242 265 286 278 262 266 267 259 257 262 267 270 273 284 294 294 294 294 278 269 274 281 281 275 272 267 268 263 257 261 247 239 241 245 256 257 260 266 259 251 251 250 251 250 250 250 250 252 255 257 257 254 249 245 242
265 267 271 272 273 272 269 270 276 282 279 283 288 278 263 253 254 257 264 272 275 277 272 259 246 240 240 237 229 238 276 304 290 264 258 265 264 265 272 272 277 284 291 306 313 303 297 296 292 285 284 291 294 288 286 278 276 271 256 250 243 245 250 251 264 272 279 277 256 249 249 248 257 263 258 257 257 257 258 259 259 257 252 246 243
267 270 270 268 271 271 268 266 270 277 278 283 288 268 251 260 269 272 274 276 278 275 264 249 243 246 244 233 234 275 322 301 278 272 268 280 292 305 308 298 300 305 310 318 317 310 303 299 299 299 296 300 313 312 299 288 286 285 269 245 235 244 259 265 274 275 287 289 248 241 251 249 261 274 267 263 263 262 260 260 260 260 257 252 246
271 272 271 270 271 271 269 265 264 269 273 275 275 265 262 268 272 272 271 272 271 262 252 247 248 252 252 259 286 311 324 284 289 308 304 306 312 313 310 303 303 303 303 305 304 301 293 283 284 295 296 298 319 314 290 286 287 287 268 223 219 234 263 273 277 268 274 285 258 248 262 261 267 273 268 267 268 268 266 262 261 260 259 255 251
276 277 269 269 272 272 269 264 262 264 266 265 265 268 270 273 274 270 265 263 259 254 254 253 249 249 257 282 303 308 301 292 306 313 300 300 302 301 301 297 295 290 287 282 278 279 271 262 267 280 280 282 303 295 274 273 281 283 258 228 242 253 267 274 276 273 265 262 259 268 274 272 281 283 280 280 279 275 271 267 266 265 261 256 254
275 282 272 268 270 269 267 266 265 263 262 260 260 267 272 277 275 265 261 262 256 247 242 237 230 223 221 244 274 276 271 262 263 270 272 282 287 292 294 291 286 277 271 267 259 255 252 249 252 262 265 270 288 286 276 257 252 271 280 294 279 258 258 273 280 281 271 257 256 276 284 286 292 292 288 287 286 281 276 279 286 286 276 265 258
269 272 272 272 272 268 268 273 273 267 264 263 262 265 270 279 273 255 253 254 246 236 226 230 240 179 191 255 276 268 252 239 249 266 278 287 289 291 293 290 286 278 272 267 260 255 253 252 248 248 254 263 281 290 288 262 240 253 269 277 262 244 248 266 275 279 276 281 283 282 289 293 298 301 298 294 291 289 288 289 290 290 291 284 270
272 271 276 282 281 276 276 277 275 271 268 268 268 268 272 275 266 252 241 235 240 259 253 257 267 257 261 277 277 263 261 271 282 294 301 304 302 299 295 290 286 283 280 276 273 268 263 261 258 252 251 254 265 276 277 268 255 252 259 262 252 242 248 262 272 275 274 285 293 294 293 290 296 300 302 305 302 293 290 292 291 289 294 294 278
274 277 285 289 287 284 283 279 274 275 274 272 272 274 279 273 264 261 249 244 260 274 270 268 265 262 269 275 275 276 286 295 302 306 306 306 304 298 292 286 283 282 282 284 282 278 273 269 264 258 258 258 252 252 256 259 261 259 257 259 258 255 254 259 264 265 269 280 289 295 299 301 303 297 292 301 311 309 302 308 311 303 297 293 281
273 278 286 290 290 287 289 286 277 276 275 272 273 275 276 269 264 266 259 260 269 271 268 268 262 259 264 265 272 283 292 299 303 303 302 300 295 292 288 282 279 278 281 285 285 283 280 276 270 263 257 255 249 244 246 249 257 261 260 259 262 265 265 264 265 267 269 277 286 291 297 303 304 296 287 291 303 311 313 316 322 317 307 304 296
274 278 284 289 291 288 290 290 278 271 267 264 265 265 264 258 252 253 256 262 266 262 259 259 256 253 254 258 271 283 289 294 296 296 296 294 291 288 285 282 277 275 277 279 281 283 283 280 277 271 261 252 247 245 243 244 251 258 260 259 264 271 276 278 281 285 283 286 290 289 290 294 296 292 286 290 299 305 308 301 302 306 310 319 318
281 282 283 285 285 282 281 280 272 265 260 258 259 254 248 243 241 244 253 261 264 260 251 248 249 250 257 268 276 281 284 287 289 291 290 289 289 287 285 284 278 273 273 273 274 275 278 279 278 273 267 259 251 246 242 242 247 251 256 261 265 270 278 284 286 289 289 290 290 286 287 292 295 288 279 288 300 301 303 297 294 296 295 298 301
291 289 283 282 281 277 274 272 271 269 263 261 261 254 246 242 241 248 259 263 265 260 247 244 247 251 261 270 276 281 287 291 291 287 287 287 288 290 290 287 281 276 272 271 271 271 272 274 274 272 267 262 257 254 250 246 246 248 254 261 264 267 271 276 282 285 285 287 288 286 287 291 294 289 281 287 293 294 298 299 298 298 294 289 288
290 290 288 286 284 282 277 272 271 270 265 261 259 257 256 248 246 260 266 261 259 255 245 244 246 248 255 262 274 285 292 293 290 288 289 291 291 292 291 289 286 282 276 273 271 269 269 268 269 267 264 262 261 262 262 256 253 251 252 257 261 264 265 265 271 276 279 283 285 284 286 290 293 293 293 293 292 295 300 300 299 299 296 291 292
284 288 294 297 298 292 280 272 268 265 261 254 249 253 261 254 256 271 263 247 246 247 242 244 245 246 256 266 273 279 284 286 288 291 294 294 294 294 292 291 289 285 280 275 269 265 261 258 258 257 256 256 256 260 261 258 257 255 253 255 259 261 261 260 261 264 268 273 277 280 285 290 293 298 300 297 299 305 304 298 296 296 293 291 294
276 278 281 288 307 308 284 268 262 257 254 249 244 246 252 248 260 273 254 235 239 242 240 244 249 258 271 279 281 280 281 282 285 288 290 289 288 288 290 290 289 286 282 275 271 265 258 253 253 254 255 254 253 253 251 250 254 254 252 253 256 256 256 256 258 260 264 267 271 278 283 285 292 300 301 299 304 312 307 298 293 290 288 291 296
271 272 269 270 284 300 290 266 250 238 237 241 241 242 243 242 252 260 244 239 246 245 243 247 256 268 275 278 280 281 280 278 277 277 278 279 279 281 284 285 286 287 286 280 273 267 261 259 256 256 260 261 261 257 254 255 257 257 255 255 255 255 256 258 260 263 265 268 271 275 280 283 290 295 298 300 304 306 298 289 285 284 286 291 294
268 269 268 267 267 271 274 251 212 213 226 236 242 240 241 242 247 251 248 247 247 247 247 253 264 272 274 275 277 278 277 275 272 270 270 272 273 277 279 281 286 290 291 288 281 271 263 260 258 258 261 264 266 265 265 265 264 264 264 264 263 264 265 266 268 270 270 272 275 277 278 284 290 290 290 293 291 284 276 274 278 282 285 287 287
269 265 264 265 258 249 243 220 185 180 218 232 240 241 249 254 251 251 252 247 242 242 246 254 266 271 273 278 279 278 277 277 274 270 269 268 270 272 274 277 281 285 288 286 281 273 263 257 255 257 259 263 268 271 272 272 271 272 272 273 275 274 274 273 273 274 276 278 282 284 286 289 291 288 284 280 273 271 275 278 280 281 282 283 284
Height
5867 5869 5869 5869 5870 5870 5870 5871 5871 5870 5870 5869 5869 5868 5868 5867 5867 5866 5865 5864 5864 5864 5863 5862 5861 5861 5861 5862 5862 5861 5861 5860 5860 5860 5859 5859 5859 5858 5858 5858 5857 5857 5857 5856 5856 5855 5855 5854 5854 5853 5852 5852 5852 5851 5851 5851 5850 5850 5850 5850 5850 5850 5850 5850 5849 5849 5849 5849 5849 5849 5850 5850 5850 5850 5850 5850 5851 5851 5851 5852 5852 5852 5852 5852 5853
5866 5868 5867 5867 5868 5868 5869 5869 5869 5868 5868 5867 5867 5867 5866 5866 5865 5864 5863 5863 5862 5862 5862 5861 5860 5860 5860 5860 5860 5860 5860 5859 5859 5859 5858 5858 5858 5858 5857 5857 5856 5856 5856 5856 5855 5855 5854 5854 5853 5852 5852 5851 5851 5851 5850 5850 5850 5850 5850 5850 5850 5850 5850 5850 5849 5849 5849 5849 5849 5849 5849 5849 5850 5850 5850 5850 5851 5851 5851 5852 5852 5852 5852 5853 5853
5865 5866 5866 5866 5866 5867 5867 5867 5867 5866 5866 5866 5865 5865 5865 5864 5863 5862 5862 5861 5861 5861 5861 5860 5859 5859 5859 5859 5859 5859 5858 5858 5858 5858 5858 5857 5857 5857 5856 5856 5856 5855 5855 5855 5854 5854 5853 5853 5852 5852 5851 5851 5850 5850 5850 5850 5850 5850 5850 5850 5849 5849 5849 5849 5849 5849 5849 5849 5848 5849 5849 5849 5849 5849 5850 5850 5850 5851 5851 5851 5852 5852 5852 5853 5853
5864 5864 5865 5865 5865 5865 5865 5865 5865 5865 5864 5864 5864 5864 5863 5862 5862 5861 5860 5860 5860 5860 5859 5858 5858 5858 5857 5857 5857 5857 5857 5857 5857 5857 5857 5856 5856 5856 5855 5855 5855 5855 5854 5854 5853 5853 5853 5852 5851 5851 5850 5850 5850 5849 5849 5849 5849 5849 5849 5849 5849 5849 5849 5849 5849 5849 5849 5848 5848 5848 5849 5849 5849 5849 5849 5849 5850 5850 5851 5851 5852 5852 5852 5853 5853
5863 5863 5863 5863 5863 5864 5864 5864 5863 5863 5863 5862 5862 5862 5861 5860 5860 5859 5859 5858 5858 5858 5858 5857 5856 5856 5856 5856 5856 5856 5856 5855 5855 5856 5855 5855 5855 5855 5855 5854 5854 5854 5853 5853 5853 5852 5852 5851 5851 5850 5850 5849 5849 5849 5849 5849 5849 5849 5849 5848 5849 5849 5849 5849 5849 5849 5848 5848 5848 5848 5848 5848 5848 5849 5849 5849 5850 5850 5850 5851 5851 5852 5852 5853 5853
5861 5862 5861 5862 5862 5862 5862 5862 5861 5861 5861 5861 5861 5860 5859 5858 5858 5857 5857 5857 5857 5856 5856 5856 5855 5855 5855 5854 5854 5854 5854 5854 5854 5854 5854 5854 5854 5854 5854 5853 5853 5853 5853 5852 5852 5851 5851 5850 5850 5850 5849 5849 5848 5848 5849 5848 5848 5848 5848 5848 5848 5848 5848 5848 5848 5848 5848 5848 5848 5848 5848 5848 5848 5848 5849 5849 5849 5850 5850 5851 5851 5852 5852 5853 5853
5859 5859 5860 5860 5860 5860 5860 5860 5860 5859 5859 5859 5859 5858 5857 5856 5856 5856 5856 5855 5855 5855 5854 5854 5854 5854 5853 5853 5852 5852 5852 5852 5852 5853 5853 5853 5853 5853 5853 5853 5852 5852 5852 5852 5851 5851 5850 5850 5849 5849 5848 5848 5848 5848 5848 5848 5848 5847 5847 5847 5848 5848 5848 5848 5848 5848 5848 5848 5848 5848 5848 5848 5848 5848 5848 5849 5849 5850 5850 5850 5851 5852 5852 5853 5853
5857 5857 5858 5858 5859 5859 5858 5858 5858 5857 5857 5857 5857 5856 5855 5855 5855 5854 5854 5854 5853 5853 5853 5853 5852 5852 5852 5852 5851 5851 5850 5850 5851 5851 5851 5851 5852 5852 5852 5852 5852 5851 5851 5851 5850 5850 5850 5849 5849 5849 5848 5848 5848 5848 5847 5847 5847 5847 5847 5847 5847 5847 5848 5848 5847 5847 5848 5848 5848 5848 5848 5848 5848 5848 5848 5849 5849 5849 5850 5850 5851 5851 5852 5852 5853
5855 5855 5856 5857 5857 5857 5856 5856 5856 5856 5856 5855 5854 5854 5853 5853 5853 5853 5852 5852 5852 5851 5851 5851 5851 5851 5851 5850 5850 5849 5848 5848 5849 5850 5850 5850 5850 5850 5850 5851 5851 5850 5850 5850 5850 5849 5849 5849 5849 5848 5848 5847 5847 5847 5847 5846 5846 5846 5847 5847 5847 5847 5847 5847 5847 5847 5847 5848 5848 5848 5847 5848 5848 5847 5848 5848 5849 5849 5850 5850 5851 5851 5852 5852 5853
5853 5854 5854 5855 5855 5855 5854 5854 5854 5854 5854 5853 5852 5852 5852 5851 5851 5851 5851 5850 5850 5849 5849 5849 5849 5849 5849 5849 5848 5847 5847 5847 5848 5849 5849 5849 5849 5849 5849 5850 5850 5849 5849 5849 5849 5849 5848 5848 5848 5848 5847 5847 5846 5846 5846 5846 5845 5846 5846 5846 5846 5846 5847 5847 5846 5846 5847 5847 5847 5847 5847 5848 5847 5847 5848 5848 5849 5849 5849 5850 5850 5851 5851 5852 5852
5851 5852 5852 5852 5852 5852 5852 5853 5852 5852 5851 5851 5850 5850 5850 5849 5849 5849 5849 5848 5848 5847 5847 5847 5847 5847 5848 5847 5847 5846 5845 5846 5846 5847 5848 5848 5848 5848 5848 5848 5848 5848 5848 5848 5848 5848 5848 5847 5847 5847 5846 5846 5846 5845 5845 5845 5845 5845 5846 5846 5846 5846 5846 5846 5846 5846 5846 5847 5847 5847 5847 5847 5847 5847 5847 5848 5848 5849 5849 5850 5850 5851 5851 5852 5852
5849 5850 5850 5850 5850 5850 5850 5851 5850 5850 5849 5849 5849 5848 5847 5847 5847 5846 5846 5846 5846 5845 5845 5846 5846 5846 5846 5845 5844 5844 5844 5844 5845 5846 5846 5846 5846 5846 5846 5846 5847 5847 5847 5847 5847 5847 5847 5846 5846 5846 5845 5845 5845 5845 5844 5844 5844 5845 5845 5845 5845 5845 5846 5846 5846 5846 5846 5847 5847 5847 5847 5847 5847 5847 5847 5848 5848 5848 5849 5849 5850 5850 5851 5851 5852
5847 5847 5847 5848 5848 5848 5848 5848 5848 5848 5847 5847 5846 5846 5845 5844 5844 5844 5844 5844 5843 5843 5844 5843 5843 5843 5843 5843 5842 5842 5843 5843 5844 5844 5844 5844 5844 5845 5845 5845 5845 5846 5846 5846 5846 5846 5845 5845 5845 5845 5845 5844 5844 5844 5844 5843 5843 5844 5844 5844 5844 5844 5845 5846 5845 5846 5846 5846 5847 5846 5847 5847 5847 5847 5847 5847 5848 5848 5848 5849 5849 5850 5850 5851 5851
5845 5845 5845 5846 5846 5846 5846 5846 5845 5845 5845 5844 5844 5843 5842 5842 5842 5842 5841 5841 5841 5841 5841 5841 5840 5841 5840 5840 5840 5840 5841 5842 5842 5843 5843 5843 5843 5843 5843 5844 5844 5844 5844 5845 5845 5845 5844 5844 5844 5844 5844 5843 5843 5843 5843 5842 5842 5843 5843 5843 5843 5843 5845 5845 5845 5845 5846 5846 5846 5846 5846 5847 5847 5847 5847 5847 5847 5848 5848 5848 5849 5849 5850 5850 5851
5843 5843 5844 5844 5844 5844 5844 5844 5843 5843 5842 5842 5841 5840 5840 5839 5839 5839 5839 5839 5839 5838 5838 5838 5838 5838 5837 5837 5838 5839 5840 5841 5841 5841 5841 5841 5841 5842 5842 5842 5842 5843 5843 5843 5843 5843 5843 5843 5843 5842 5842 5842 5842 5841 5841 5841 5841 5841 5842 5842 5842 5843 5844 5845 5845 5845 5846 5846 5846 5846 5846 5846 5846 5846 5846 5846 5847 5847 5848 5848 5848 5848 5849 5850 5850
5842 5842 5842 5842 5842 5842 5842 5841 5841 5841 5840 5839 5838 5837 5837 5836 5836 5836 5836 5836 5836 5835 5835 5835 5835 5835 5835 5836 5837 5838 5839 5839 5839 5840 5840 5840 5840 5840 5840 5841 5841 5841 5841 5841 5842 5842 5842 5841 5841 5841 5840 5840 5840 5840 5840 5840 5840 5840 5840 5840 5841 5841 5843 5844 5844 5844 5845 5845 5845 5845 5845 5846 5846 5846 5846 5846 5846 5847 5847 5847 5848 5848 5848 5849 5849
5840 5840 5840 5840 5840 5840 5839 5839 5838 5838 5837 5837 5835 5834 5834 5834 5834 5834 5834 5834 5833 5832 5831 5832 5832 5832 5833 5835 5836 5837 5837 5837 5837 5838 5838 5838 5838 5839 5839 5839 5840 5840 5839 5839 5840 5840 5840 5840 5840 5839 5839 5839 5839 5838 5838 5838 5838 5838 5838 5839 5839 5840 5841 5843 5844 5843 5844 5845 5845 5845 5845 5845 5846 5846 5846 5846 5846 5846 5847 5847 5847 5847 5848 5848 5849
5837 5837 5837 5838 5838 5837 5837 5836 5836 5836 5835 5834 5833 5832 5832 5832 5832 5831 5831 5831 5831 5829 5829 5830 5830 5830 5832 5834 5835 5835 5834 5834 5835 5836 5836 5836 5837 5837 5837 5838 5838 5838 5838 5837 5837 5838 5839 5839 5838 5838 5837 5837 5837 5837 5836 5836 5836 5836 5837 5837 5838 5838 5839 5842 5843 5842 5843 5844 5844 5844 5844 5845 5845 5845 5845 5846 5846 5846 5846 5846 5846 5847 5847 5848 5848
5835 5834 5835 5835 5835 5834 5834 5833 5833 5833 5832 5831 5830 5830 5830 5829 5829 5828 5828 5828 5827 5826 5827 5828 5827 5829 5831 5832 5832 5832 5833 5833 5834 5834 5834 5835 5835 5835 5835 5835 5836 5836 5836 5836 5836 5836 5836 5837 5837 5836 5836 5835 5835 5835 5834 5834 5834 5834 5835 5835 5836 5837 5837 5840 5842 5841 5841 5843 5843 5843 5843 5844 5845 5845 5845 5845 5845 5845 5846 5846 5846 5846 5846 5847 5847
5832 5832 5832 5832 5831 5831 5831 5831 5831 5830 5829 5828 5828 5828 5827 5826 5826 5826 5825 5825 5824 5824 5824 5825 5826 5828 5829 5830 5830 5830 5831 5832 5832 5833 5833 5834 5833 5833 5833 5834 5834 5834 5834 5834 5834 5834 5834 5834 5834 5834 5834 5834 5834 5834 5833 5832 5832 5833 5833 5834 5834 5835 5836 5839 5840 5840 5840 5841 5841 5842 5843 5843 5843 5844 5844 5845 5845 5845 5845 5845 5845 5845 5846 5846 5847
5829 5829 5829 5829 5828 5828 5828 5828 5827 5826 5826 5826 5825 5825 5824 5823 5823 5823 5822 5822 5822 5821 5822 5823 5825 5826 5827 5828 5828 5829 5830 5830 5831 5831 5832 5832 5832 5832 5832 5832 5833 5833 5833 5833 5833 5832 5832 5833 5832 5832 5832 5833 5833 5832 5832 5831 5830 5831 5831 5832 5832 5833 5835 5837 5838 5838 5839 5839 5839 5841 5842 5842 5842 5843 5843 5844 5845 5845 5845 5845 5845 5845 5845 5846 5846
5826 5826 5826 5826 5826 5826 5826 5825 5824 5824 5823 5823 5823 5823 5821 5820 5819 5819 5819 5820 5819 5819 5821 5822 5823 5823 5825 5826 5827 5828 5829 5829 5829 5830 5830 5830 5830 5831 5831 5831 5832 5832 5832 5832 5831 5831 5831 5832 5832 5831 5831 5832 5832 5832 5831 5830 5829 5829 5829 5830 5830 5831 5833 5835 5836 5836 5837 5838 5838 5839 5840 5841 5841 5842 5842 5843 5844 5844 5844 5845 5845 5845 5845 5845 5845
5823 5823 5824 5824 5823 5823 5823 5822 5821 5821 5821 5821 5821 5820 5819 5817 5817 5816 5817 5818 5817 5818 5820 5820 5820 5821 5823 5824 5825 5826 5827 5827 5828 5828 5828 5828 5829 5830 5829 5830 5831 5831 5831 5831 5830 5830 5831 5831 5831 5831 5831 5832 5832 5831 5831 5829 5828 5828 5828 5828 5829 5830 5831 5833 5834 5834 5835 5836 5836 5837 5838 5839 5840 5840 5841 5842 5843 5844 5844 5844 5844 5844 5844 5845 5845
5820 5820 5821 5821 5820 5820 5819 5818 5819 5819 5819 5819 5819 5818 5817 5816 5816 5814 5815 5816 5815 5817 5819 5818 5818 5819 5821 5822 5823 5824 5825 5826 5826 5826 5826 5827 5828 5828 5829 5829 5830 5830 5830 5830 5830 5830 5830 5829 5828 5828 5828 5829 5829 5829 5829 5829 5828 5827 5826 5827 5827 5828 5829 5831 5833 5833 5833 5834 5835 5835 5836 5837 5838 5839 5840 5841 5842 5843 5843 5843 5843 5843 5844 5844 5844
5817 5818 5818 5818 5817 5816 5816 5816 5816 5817 5817 5817 5816 5816 5815 5816 5815 5812 5813 5814 5814 5815 5817 5817 5816 5817 5819 5820 5821 5823 5823 5824 5824 5824 5825 5826 5827 5827 5828 5828 5828 5829 5828 5828 5828 5828 5827 5825 5824 5824 5825 5826 5827 5827 5827 5827 5827 5826 5826 5826 5827 5827 5828 5829 5831 5831 5831 5832 5832 5833 5834 5835 5836 5837 5839 5840 5841 5842 5842 5843 5843 5842 5842 5843 5843
5815 5816 5815 5815 5814 5814 5813 5813 5814 5814 5814 5814 5814 5814 5814 5815 5813 5809 5810 5812 5812 5814 5815 5815 5814 5815 5817 5819 5820 5821 5821 5822 5822 5823 5824 5825 5826 5826 5826 5827 5827 5827 5827 5827 5826 5825 5824 5823 5822 5823 5824 5825 5825 5824 5824 5825 5825 5824 5824 5825 5826 5827 5827 5828 5829 5829 5829 5829 5830 5831 5832 5833 5834 5836 5837 5839 5839 5840 5841 5841 5841 5841 5841 5841 5842
5813 5813 5812 5811 5811 5811 5811 5811 5812 5812 5811 5811 5811 5812 5812 5813 5811 5808 5808 5809 5810 5812 5814 5814 5813 5815 5817 5818 5818 5819 5820 5820 5821 5822 5823 5823 5824 5824 5825 5825 5826 5825 5825 5824 5823 5823 5822 5822 5821 5822 5823 5823 5823 5823 5823 5824 5823 5822 5822 5823 5825 5826 5826 5827 5827 5827 5827 5827 5827 5828 5830 5831 5832 5834 5836 5837 5838 5838 5839 5839 5840 5840 5840 5840 5841
5810 5810 5809 5809 5809 5809 5809 5809 5810 5810 5809 5809 5809 5810 5810 5810 5810 5807 5806 5809 5810 5811 5813 5813 5813 5814 5815 5816 5816 5818 5819 5820 5820 5821 5821 5822 5823 5823 5824 5824 5824 5823 5822 5821 5821 5821 5821 5820 5820 5820 5819 5819 5820 5821 5822 5822 5821 5821 5821 5822 5823 5824 5824 5826 5825 5825 5824 5824 5825 5826 5828 5829 5831 5832 5834 5835 5836 5836 5836 5837 5838 5838 5839 5839 5840
5808 5806 5806 5806 5807 5807 5807 5807 5807 5807 5807 5807 5808 5808 5809 5810 5809 5807 5806 5808 5809 5810 5812 5812 5812 5813 5813 5814 5815 5816 5818 5818 5819 5820 5820 5821 5822 5822 5823 5822 5822 5821 5820 5819 5819 5819 5819 5819 5819 5818 5817 5817 5818 5819 5819 5819 5819 5819 5819 5821 5822 5822 5822 5824 5823 5823 5823 5822 5822 5824 5826 5828 5829 5830 5831 5832 5833 5833 5834 5835 5836 5836 5837 5838 5838
5804 5803 5802 5804 5805 5805 5805 5805 5806 5805 5804 5805 5807 5807 5808 5809 5808 5807 5806 5806 5808 5810 5810 5811 5812 5812 5812 5813 5814 5815 5816 5817 5818 5819 5819 5820 5820 5821 5821 5820 5819 5819 5818 5817 5817 5817 5817 5817 5817 5816 5815 5815 5816 5817 5817 5816 5817 5818 5818 5821 5822 5820 5820 5821 5821 5820 5820 5819 5820 5822 5825 5827 5828 5828 5828 5829 5830 5831 5832 5833 5833 5834 5835 5835 5836
5800 5799 5800 5801 5803 5803 5804 5804 5805 5804 5804 5804 5805 5805 5807 5807 5806 5807 5806 5805 5807 5808 5808 5809 5810 5811 5811 5812 5813 5814 5815 5816 5817 5818 5818 5818 5819 5819 5819 5818 5818 5817 5816 5816 5816 5816 5815 5815 5815 5814 5814 5814 5815 5815 5815 5815 5816 5817 5817 5819 5821 5818 5817 5819 5818 5816 5816 5817 5819 5822 5825 5826 5826 5826 5826 5827 5827 5828 5829 5829 5831 5831 5832 5833 5833
5797 5796 5798 5801 5802 5802 5802 5803 5804 5804 5803 5802 5802 5803 5804 5804 5804 5804 5803 5803 5805 5805 5805 5806 5808 5809 5810 5811 5811 5813 5814 5815 5816 5816 5816 5817 5817 5817 5816 5816 5816 5815 5815 5815 5814 5814 5814 5814 5814 5813 5813 5813 5814 5814 5814 5814 5814 5815 5815 5817 5818 5816 5815 5816 5815 5814 5815 5818 5821 5824 5824 5823 5823 5824 5824 5824 5825 5825 5826 5826 5828 5829 5830 5830 5830
5795 5795 5798 5800 5799 5799 5800 5801 5803 5804 5803 5802 5801 5801 5802 5802 5802 5802 5801 5801 5803 5803 5803 5803 5805 5807 5809 5810 5810 5812 5813 5813 5814 5814 5815 5815 5815 5815 5815 5814 5814 5814 5813 5813 5813 5813 5813 5813 5813 5812 5812 5812 5813 5813 5813 5813 5813 5813 5814 5814 5815 5814 5813 5813 5813 5814 5816 5819 5821 5823 5821 5820 5821 5821 5822 5822 5823 5823 5824 5824 5825 5826 5827 5828 5828
5793 5793 5796 5797 5796 5797 5799 5800 5801 5801 5801 5801 5801 5800 5800 5801 5800 5800 5800 5800 5801 5802 5801 5802 5803 5805 5807 5809 5811 5811 5810 5811 5812 5813 5813 5813 5813 5813 5813 5813 5812 5812 5812 5811 5811 5811 5811 5811 5812 5812 5811 5812 5812 5812 5812 5812 5811 5812 5812 5813 5812 5812 5812 5813 5813 5814 5816 5818 5819 5819 5818 5819 5820 5820 5820 5821 5821 5821 5821 5822 5822 5823 5824 5824 5825
5792 5792 5794 5795 5796 5797 5797 5797 5798 5799 5799 5800 5800 5800 5800 5800 5799 5800 5799 5799 5800 5800 5801 5801 5802 5803 5806 5808 5809 5809 5808 5808 5810 5811 5811 5811 5811 5811 5811 5810 5810 5810 5810 5810 5810 5810 5810 5810 5811 5811 5811 5812 5812 5812 5812 5811 5810 5810 5811 5811 5810 5810 5811 5812 5813 5814 5816 5817 5817 5817 5817 5818 5819 5818 5818 5818 5819 5819 5819 5819 5819 5820 5821 5822 5822
5791 5791 5793 5794 5795 5795 5796 5795 5796 5797 5797 5798 5798 5799 5799 5799 5798 5799 5799 5798 5798 5799 5801 5801 5802 5803 5804 5805 5806 5806 5806 5807 5808 5809 5809 5809 5809 5809 5809 5809 5809 5809 5809 5809 5809 5810 5810 5810 5810 5811 5811 5811 5811 5811 5811 5810 5809 5809 5809 5809 5809 5809 5810 5811 5812 5813 5814 5815 5815 5816 5817 5818 5817 5816 5816 5816 5816 5817 5817 5817 5817 5817 5818 5819 5819
5790 5790 5792 5793 5793 5793 5793 5793 5794 5795 5795 5796 5797 5797 5798 5798 5797 5797 5798 5797 5798 5799 5800 5800 5801 5802 5801 5803 5804 5805 5806 5806 5806 5807 5808 5808 5808 5808 5808 5808 5808 5808 5808 5809 5809 5809 5810 5810 5810 5810 5810 5810 5810 5810 5810 5809 5809 5808 5807 5808 5807 5808 5809 5810 5811 5812 5813 5813 5814 5815 5816 5816 5816 5815 5815 5814 5814 5815 5815 5815 5815 5815 5815 5816 5817
5788 5790 5790 5791 5790 5790 5790 5791 5793 5793 5794 5795 5796 5796 5797 5797 5796 5796 5797 5797 5797 5798 5799 5799 5799 5799 5800 5802 5803 5805 5806 5806 5807 5807 5807 5808 5807 5807 5807 5807 5807 5807 5808 5808 5809 5809 5809 5810 5810 5810 5810 5810 5809 5809 5809 5809 5808 5807 5807 5807 5806 5807 5809 5810 5810 5811 5811 5812 5814 5814 5815 5815 5815 5815 5814 5813 5813 5813 5813 5814 5814 5814 5814 5814 5815
5786 5788 5788 5788 5788 5788 5788 5790 5792 5792 5792 5793 5794 5795 5795 5796 5795 5795 5796 5797 5797 5797 5797 5797 5798 5797 5798 5800 5802 5804 5804 5805 5806 5806 5806 5806 5806 5806 5806 5806 5806 5807 5808 5808 5809 5809 5809 5809 5809 5809 5808 5808 5808 5808 5807 5808 5808 5807 5807 5806 5805 5806 5808 5809 5810 5810 5810 5811 5812 5813 5814 5814 5813 5813 5813 5812 5811 5812 5812 5813 5813 5813 5813 5813 5813
5783 5784 5786 5787 5787 5787 5787 5789 5791 5792 5792 5791 5792 5793 5794 5794 5794 5794 5795 5796 5797 5797 5796 5796 5797 5797 5797 5798 5800 5801 5802 5803 5803 5803 5804 5804 5805 5805 5805 5806 5806 5806 5807 5808 5808 5808 5808 5808 5807 5807 5807 5807 5807 5807 5807 5807 5807 5807 5807 5806 5805 5806 5808 5808 5808 5809 5809 5809 5811 5812 5812 5812 5812 5812 5811 5810 5810 5810 5811 5811 5811 5811 5811 5811 5811
5779 5782 5785 5786 5786 5786 5786 5788 5790 5791 5791 5790 5790 5791 5792 5792 5792 5793 5794 5794 5795 5796 5795 5795 5796 5795 5795 5796 5797 5799 5800 5800 5801 5802 5802 5803 5804 5804 5805 5805 5805 5805 5806 5806 5807 5807 5807 5807 5806 5806 5806 5806 5806 5806 5806 5806 5806 5806 5806 5806 5805 5805 5807 5807 5807 5808 5808 5809 5810 5810 5810 5810 5810 5811 5810 5809 5809 5809 5809 5809 5809 5809 5809 5809 5809
5778 5781 5783 5784 5784 5785 5785 5787 5788 5789 5789 5789 5789 5789 5790 5790 5790 5791 5792 5793 5794 5794 5794 5794 5794 5794 5794 5795 5796 5798 5798 5799 5800 5801 5802 5802 5803 5804 5804 5804 5804 5804 5804 5805 5806 5806 5806 5806 5806 5805 5805 5805 5805 5805 5805 5805 5805 5805 5805 5805 5804 5804 5805 5806 5806 5807 5808 5808 5809 5808 5808 5808 5809 5809 5809 5809 5808 5807 5808 5808 5808 5808 5808 5808 5808
5777 5780 5781 5781 5782 5783 5784 5786 5786 5786 5787 5787 5787 5787 5788 5789 5789 5790 5790 5792 5793 5793 5793 5793 5792 5793 5794 5795 5796 5797 5798 5799 5800 5800 5801 5802 5802 5803 5803 5803 5803 5803 5803 5803 5804 5804 5805 5805 5804 5804 5804 5804 5804 5804 5804 5805 5805 5804 5804 5804 5803 5803 5803 5804 5804 5805 5806 5807 5807 5807 5806 5806 5807 5807 5807 5807 5807 5806 5806 5807 5807 5807 5807 5807 5807
5776 5778 5779 5779 5780 5781 5782 5783 5783 5784 5784 5784 5785 5786 5786 5787 5787 5788 5789 5790 5791 5792 5791 5791 5792 5792 5793 5794 5795 5796 5797 5798 5799 5800 5800 5801 5801 5802 5802 5802 5802 5802 5801 5802 5802 5803 5803 5803 5803 5803 5803 5803 5803 5803 5804 5804 5804 5804 5803 5803 5803 5803 5803 5802 5802 5803 5804 5805 5806 5806 5805 5804 5804 5804 5805 5805 5805 5804 5805 5805 5805 5806 5806 5806 5807
5775 5776 5777 5777 5778 5779 5780 5780 5780 5781 5781 5782 5783 5784 5784 5785 5785 5786 5787 5788 5789 5790 5790 5790 5791 5792 5793 5794 5795 5796 5797 5797 5798 5798 5799 5799 5800 5800 5800 5800 5800 5800 5800 5800 5800 5801 5801 5802 5802 5802 5802 5802 5802 5802 5802 5803 5803 5803 5802 5802 5802 5802 5802 5801 5801 5802 5803 5803 5804 5804 5804 5803 5803 5802 5802 5803 5803 5803 5803 5803 5804 5805 5805 5805 5805
5774 5774 5775 5776 5777 5778 5778 5779 5779 5779 5779 5780 5781 5782 5782 5783 5784 5785 5785 5786 5787 5788 5789 5790 5790 5791 5793 5794 5794 5795 5795 5796 5796 5796 5797 5797 5797 5798 5798 5799 5799 5799 5799 5798 5798 5799 5799 5800 5800 5801 5801 5801 5801 5800 5801 5801 5801 5801 5801 5801 5801 5801 5800 5800 5801 5801 5801 5802 5802 5803 5803 5802 5801 5800 5800 5801 5801 5801 5802 5802 5802 5803 5803 5804 5804
5773 5773 5774 5775 5775 5776 5776 5777 5777 5777 5777 5778 5779 5780 5781 5782 5782 5783 5783 5784 5786 5787 5788 5789 5790 5791 5792 5792 5793 5794 5794 5794 5794 5794 5794 5794 5794 5795 5796 5797 5797 5797 5797 5797 5797 5797 5797 5798 5798 5799 5799 5799 5799 5799 5799 5800 5800 5800 5800 5799 5799 5799 5799 5799 5799 5799 5800 5800 5800 5801 5801 5801 5800 5799 5798 5799 5799 5799 5799 5800 5801 5801 5802 5802 5802
5773 5773 5773 5774 5775 5775 5775 5775 5775 5775 5776 5777 5777 5778 5779 5780 5781 5781 5782 5783 5784 5786 5787 5788 5789 5790 5790 5791 5791 5792 5792 5792 5792 5791 5791 5792 5792 5793 5793 5794 5795 5795 5796 5795 5795 5795 5795 5796 5796 5796 5796 5797 5797 5797 5798 5798 5798 5798 5798 5798 5797 5797 5797 5797 5797 5798 5798 5798 5798 5798 5798 5798 5798 5798 5797 5797 5797 5798 5798 5797 5798 5799 5799 5799 5800
5772 5772 5773 5773 5774 5775 5774 5774 5774 5774 5775 5776 5776 5777 5778 5779 5780 5780 5781 5782 5783 5784 5785 5787 5788 5789 5789 5789 5790 5790 5790 5790 5790 5790 5790 5790 5790 5791 5791 5792 5792 5793 5793 5793 5793 5793 5793 5794 5794 5794 5794 5794 5794 5795 5795 5796 5796 5796 5796 5796 5796 5796 5796 5795 5796 5796 5796 5795 5795 5795 5795 5796 5797 5797 5796 5796 5796 5797 5796 5795 5796 5796 5797 5797 5797
5770 5771 5772 5772 5773 5774 5774 5773 5773 5774 5775 5775 5776 5777 5778 5779 5779 5779 5780 5781 5782 5783 5784 5785 5786 5787 5788 5788 5788 5788 5788 5788 5788 5788 5788 5788 5788 5789 5789 5790 5790 5790 5791 5791 5791 5791 5791 5792 5792 5792 5792 5792 5792 5793 5793 5794 5794 5794 5794 5794 5794 5794 5794 5794 5794 5794 5793 5793 5793 5793 5794 5794 5795 5796 5795 5795 5795 5795 5795 5794 5794 5794 5795 5795 5796
5768 5770 5770 5770 5771 5772 5772 5773 5773 5773 5774 5775 5776 5777 5777 5778 5778 5778 5779 5780 5781 5782 5782 5783 5785 5786 5786 5786 5786 5786 5786 5786 5786 5786 5786 5786 5786 5786 5787 5787 5788 5789 5789 5789 5789 5789 5789 5790 5790 5790 5790 5790 5791 5791 5791 5791 5792 5792 5792 5792 5792 5792 5792 5792 5792 5792 5791 5791 5791 5791 5792 5793 5794 5794 5794 5793 5793 5793 5793 5793 5793 5793 5793 5793 5793